FENGYUN 1C DEB, 36258

Orbit data source: Space-Track

FENGYUN 1C DEB, 36258 is space debris in SSO originally from a launch on Mon, 10 May 1999 UTC launched from the Taiyaun Space Center, China (TSC). Fengyun 1C debris stems from the Chinese weather satellite Fengyun-1C, which was intentionally destroyed by a Chinese anti-satellite missile in 2007. This event dramatically increased the amount of space debris, with thousands of trackable fragments posing hazards to satellites and human spaceflight. The Fengyun 1C debris cloud has become a focal point in discussions about space sustainability and the need for international regulations to prevent the creation of new debris.

Loading next visibility...
Identifier
36258, 1999-025DWK
Orbit
SSO
Country
Flag of CNCN / PRC
Related business
Manufacturer
Unknown
Mission
Spacecraft
Bus & Motor
Unknown
Mass
Unknown
Launch date (UTC)
1999-05-10 (27 years ago)
Launch vehicle
Unknown
Launch site
Taiyaun Space Center, China (TSC)
Object type
Payload
Rocket body
Debris
Shape & HBR
Unknown shape, 0.1 m
Radar Cross Section
Small (<0.1 m²)

Expand to show TLE details & history
Last TLE update: 2 days ago

TLE from 2 days ago
0 FENGYUN 1C DEB
1 36258U 99025DWK 25352.31041610  .00001958  00000-0  23742-3 0  9996
2 36258  99.0864  22.4711 0173574 108.4242 253.5920 14.74877851909047
Epoch: 2025-12-18T07:26Z
TLE epoch observation values (Epoch: 2025-12-18T07:26:59.951Z)
Latitude
-0.00005°
Longitude
-176.44644°
Altitude
684.895 km
Speed
7.495 km/s
True Right ascension
01h 29m 53s
True Declination
0° 00' 00"
Sunlit
Object was in daylight at epoch
Visualization orbit readout
Latitude
Unknown
Longitude
Unknown
Altitude
Unknown
Speed
Unknown
Apparent Right ascension
Unknown
Apparent Declination
Unknown
Sunlit
N/A
Visualization observer readout
Local Sidereal Time
09:08:00
Azimuth
Unknown
Elevation
Unknown
Doppler factor
Unknown
Orbital elements
Apogee altitude
764.505 km
Perigee altitude
520.78 km
Semi-major axis
7,020.779 km
Eccentricity
0.01736
Inclination
99.0864°
RAAN
22.4711°
Arg. of periapsis
108.4242°
True anomaly
251.69596°
Mean anomaly
253.592°
Eccentric anomaly
252.64278°
Mean motion
3.68948 °/min
Orbital period
97.57 mins
BSTAR
0.00023742
Loading maneuver chart data...
Computing Atmospheric mass density...

Documentation

Showing up to 5 results
|